This is the latest recevied weather packets stored in our database for station/object AI9F. If no packets are shown the sender has not sent any weather packets the latest 10 day(s).
| Time | Temp. | Humidity | Pressure | Rain* | Wind** | Luminosity | Snow |
|---|---|---|---|---|---|---|---|
| 1776992771 | 22.78° C | 58% | 1009 hPa | 0 mm | - | 0 W/m² | - |
| 1776992468 | 22.78° C | 57% | 1009.2 hPa | 0 mm | - | 0 W/m² | - |
| 1776992165 | 23.33° C | 56% | 1008.9 hPa | 0 mm | - | 0 W/m² | - |
| 1776991861 | 23.33° C | 55% | 1009.1 hPa | 0 mm | - | 0 W/m² | - |
| 1776991559 | 23.33° C | 55% | 1009.1 hPa | 0 mm | - | 1 W/m² | - |
| 1776991254 | 23.33° C | 56% | 1009.2 hPa | 0 mm | - | 2 W/m² | - |
| 1776990950 | 23.89° C | 54% | 1009.2 hPa | 0 mm | - | 4 W/m² | - |
| 1776990647 | 23.89° C | 52% | 1009 hPa | 0 mm | - | 6 W/m² | - |
| 1776990345 | 23.89° C | 53% | 1009.2 hPa | 0 mm | - | 9 W/m² | - |
| 1776990040 | 24.44° C | 51% | 1009.1 hPa | 0 mm | - | 13 W/m² | - |
| 1776989735 | 25° C | 51% | 1009.1 hPa | 0 mm | - | 17 W/m² | - |
| 1776989431 | 25° C | 49% | 1008.9 hPa | 0 mm | - | 18 W/m² | - |
| 1776989128 | 25° C | 48% | 1009.3 hPa | 0 mm | - | 23 W/m² | - |
| 1776988825 | 25.56° C | 49% | 1009.1 hPa | 0 mm | - | 30 W/m² | - |
| 1776988523 | 25.56° C | 48% | 1009.2 hPa | 0 mm | - | 39 W/m² | - |
| 1776988219 | 26.11° C | 49% | 1009.6 hPa | 0 mm | - | 45 W/m² | - |
| 1776987915 | 26.11° C | 47% | 1009.5 hPa | 0 mm | - | 50 W/m² | - |
| 1776987611 | 26.11° C | 46% | 1009.3 hPa | 0 mm | - | 50 W/m² | - |
| 1776987309 | 26.11° C | 46% | 1009.4 hPa | 0 mm | - | 59 W/m² | - |
| 1776987005 | 26.67° C | 47% | 1009.2 hPa | 0 mm | - | 66 W/m² | - |
| 1776986700 | 26.67° C | 48% | 1009.3 hPa | 0 mm | - | 66 W/m² | - |
| 1776986094 | 26.11° C | 46% | 1009.7 hPa | 0 mm | - | 100 W/m² | - |
| 1776985790 | 26.11° C | 47% | 1009.7 hPa | 0 mm | - | 60 W/m² | - |
| 1776985488 | 26.11° C | 46% | 1009.6 hPa | 0 mm | - | 122 W/m² | - |
| 1776985183 | 26.11° C | 45% | 1009.7 hPa | 0 mm | - | 76 W/m² | - |
* Rain latest hour (hover to see other rain measurements)
** Current wind speed in m/s (hover to see current wind gust speed)